TimeAKDT,TemperatureF,Dew PointF,Humidity,Sea Level PressureIn,VisibilityMPH,Wind Direction,Wind SpeedMPH,Gust SpeedMPH,PrecipitationIn,Events,Conditions,WindDirDegrees,DateUTC
12:53 AM,-9.9,-15.0,78,30.10,10.0,Calm,Calm,-,N/A,,Partly Cloudy,0,2012-11-02 08:53:00
1:53 AM,-11.0,-17.0,75,30.09,10.0,Calm,Calm,-,N/A,,Partly Cloudy,0,2012-11-02 09:53:00
2:53 AM,-9.0,-14.1,79,30.06,10.0,Calm,Calm,-,N/A,,Partly Cloudy,0,2012-11-02 10:53:00
3:53 AM,-9.9,-15.0,78,30.04,10.0,Calm,Calm,-,N/A,,Partly Cloudy,0,2012-11-02 11:53:00
4:53 AM,-11.0,-17.0,75,30.01,10.0,Calm,Calm,-,N/A,,Partly Cloudy,0,2012-11-02 12:53:00
5:53 AM,-13.0,-17.0,82,29.99,10.0,Calm,Calm,-,N/A,,Partly Cloudy,0,2012-11-02 13:53:00
6:53 AM,-14.1,-18.9,79,29.96,10.0,Calm,Calm,-,N/A,,Partly Cloudy,0,2012-11-02 14:53:00
7:53 AM,-13.0,-17.0,82,29.94,10.0,Calm,Calm,-,N/A,,Partly Cloudy,0,2012-11-02 15:53:00
8:53 AM,-11.9,-17.0,78,29.91,10.0,NNE,3.5,-,N/A,,Partly Cloudy,20,2012-11-02 16:53:00
9:53 AM,-9.0,-14.1,79,29.88,10.0,Calm,Calm,-,N/A,,Partly Cloudy,0,2012-11-02 17:53:00
10:53 AM,-7.1,-11.9,79,29.86,10.0,NE,6.9,-,N/A,,Scattered Clouds,50,2012-11-02 18:53:00
11:53 AM,-7.1,-11.0,83,29.84,10.0,SSE,3.5,-,N/A,,Scattered Clouds,150,2012-11-02 19:53:00
12:53 PM,-6.0,-11.0,79,29.81,10.0,Calm,Calm,-,N/A,,Mostly Cloudy,0,2012-11-02 20:53:00
1:53 PM,-2.9,-8.0,79,29.78,10.0,Calm,Calm,-,N/A,,Mostly Cloudy,0,2012-11-02 21:53:00
2:53 PM,1.9,-2.9,80,29.75,10.0,Calm,Calm,-,N/A,,Mostly Cloudy,0,2012-11-02 22:53:00
3:53 PM,3.9,-0.0,84,29.73,10.0,Calm,Calm,-,N/A,,Mostly Cloudy,0,2012-11-02 23:53:00
4:53 PM,6.1,1.0,80,29.71,10.0,NNE,4.6,-,N/A,,Mostly Cloudy,30,2012-11-03 00:53:00
5:53 PM,9.0,3.0,77,29.71,10.0,Calm,Calm,-,N/A,,Mostly Cloudy,0,2012-11-03 01:53:00
6:53 PM,12.0,6.1,77,29.70,10.0,Calm,Calm,-,N/A,,Mostly Cloudy,0,2012-11-03 02:53:00
7:53 PM,14.0,6.1,71,29.69,10.0,North,5.8,-,N/A,,Overcast,360,2012-11-03 03:53:00
8:53 PM,18.0,9.0,68,29.68,10.0,NNE,11.5,-,N/A,,Overcast,30,2012-11-03 04:53:00
9:53 PM,18.0,9.0,68,29.67,10.0,NE,4.6,-,N/A,,Overcast,40,2012-11-03 05:53:00
10:53 PM,17.1,8.1,68,29.66,10.0,NE,4.6,-,N/A,,Overcast,40,2012-11-03 06:53:00
11:53 PM,19.0,8.1,62,29.66,10.0,NNE,10.4,-,N/A,Snow,Light Snow,20,2012-11-03 07:53:00